Timeline UpdatesTrip UpdatesNews PostsPvt Posts♥♥Travel TipsAdmin PostsConv PostsFollowed PostsChat RequestsBlog PostsPNR Posts

Disclaimer
Search
 
 
Sat Nov 1, 2014 19:34:42 ISTHomeTrainsΣChainsAtlasPNRForumGalleryNewsFAQTripsMembersLoginFeedback
No Recent News for this Train
Other Trains in the News **new
Latest...
.
Sat Feb 02, 2013 (04:10PM)
⇐ Return Journey: Train# 51187

51188/Katni - Bhusaval Passenger (UnReserved)

Time-Table HAS CHANGED.
Sep 05 2014 (2:13PM)
Change Departure Station:
Change Arrival Station:
Post a Train Travel TipPost a Train Travel Tip **new
Post a Comment/Question/Picture/VideoPost a Comment/Question/Picture/Video
Pantry/Catering
✕ NO Pantry Car
✕ NO Catering
RSA - Rake Sharing
Rake/Coach Composition
Loco
KTE-ET: KTE/ET WDM-3A ET-BSL: BSL/ET WAP-4
News    PNR    Forum    Time-Table    Availability    Fare Chart    Map    Arr/Dep History    Trips    Gallery    ΣChains    X/O    Timeline    
Travel Time: 7h 57m    27 halts    Distance: 224 km    Avg Speed: 28 km/hr
Type: Passenger
Zone: CR/Central
Departs @ 09:03 (Avg 3h 35m late)
Platform# ???
SMTWTFS
Palasner/PAL 
Arrives @ 17:00 (Avg 2h 43m late)
Platform# 6
SMTWTFS
Bhusaval Junction/BSL 

27 halts. 28 intermediate Stations between Palasner and Bhusaval Junction

Show ALL intermediate Stations  Show Old Time-Table

#TrkCodeStation NameX/OArrivesAvgDepartsAvgHaltPFDay#KmSpeedElevZoneAddress
1%==|KTEKatni Junction (6)  -22:20+4551-419.032387mWCRKatni, Madhya Pradesh
2|==|MDRRMadhavnagar Road (2)  22:30-22:31-1m--1-413.847398mWCRMadhavnagar, Madhya Pradesh
3|==|NWRNiwar (2)X  22:41+1:3622:42+1:461m--1-405.952412mWCRPipraundh, Madhya Pradesh
4|==|SNRRSansarpur (2)X  22:51-22:52-1m--1-398.159436mWCRNational Highway 7, Madhya Pradesh
5|==|SBDSleemanabad Road (2)X  22:59+5823:00+581m--1-391.257434mWCRSleemanabad, Madhya Pradesh
6|==|DDCEDundi (2)  23:10+1:4323:11+1:531m--1-381.760415mWCRDundi, Madhya Pradesh
7|==|SHRSihora Road (2)X  23:26+1:3823:28+1:462m--1-366.861388mWCRJabalpur, Madhya Pradesh
8|==|GSPRGosalpur (2)XO  23:39+2:0223:40+2:081m--1-355.757396mWCRJabalpur, Madhya Pradesh
9|==|DOEDeori (2)  23:51+2:0723:52+2:081m--1-345.248392mWCRJabalpur, Madhya Pradesh
10|==|ADTLAdhartal (2)  00:03+2:0100:04+2:101m--2-336.482393mWCRJabalpur, Madhya Pradesh
11|==|JBPJabalpur Junction (4)X  00:20 00:10+3700:30 00:20+4610m12-328.214416mWCRJabalpur, Madhya Pradesh
12|==|MMLMadan Mahal (3)  00:34+1:5700:36+1:582m12-324.956428mWCRJabalpur, Madhya Pradesh
13|==|BRGTBheraghat (2)  00:50+2:5600:51+3:051m--2-311.752389mWCRBheraghat, Madhya Pradesh
14|==|BHTNBhitoni (2)X  01:04 01:06+3:0301:05 01:08+3:031 2m--2-298.669377mWCRJabalpur, Madhya Pradesh
15|==|BMRBikrampur (2)  01:17 01:18+2:4801:18 01:20+2:531 2m--2-287.059353mWCRBikrampur Dist Narsingpur., Madhya Pradesh
16|==|SRIDShridham (3)X  01:29 01:32+1:3401:31 01:34+1:362m32-275.366373mWCRShridham, Madhya Pradesh
17|==!KKBKarak Bel (2)  01:48+3:1701:49+3:181m--2-259.929375mWCRKarak Bel, Madhya Pradesh
18|==!BELDBelkhera (2)  01:58+2:5301:59+2:551m--2-255.533367mWCRState Highway 22, Madhya Pradesh
19!==|GPCGhatpindrai (2)O  02:09+3:1502:10+3:181m--2-250.035366mWCRGhatpindra, Madhya Pradesh
20|==|NUNarsinghpur (2)X  02:20+2:0402:22+2:112m22-244.268365mWCRNarsimhapur, Madhya Pradesh
21|==|KYKareli (2)X  02:36+2:2502:37+2:271m22-228.347361mWCRKareli, Madhya Pradesh
22|==|KFYKarapgaon (2)X  02:48-02:49-1m--2-219.747363mWCRNational Highway 26, Madhya Pradesh
23|==|BNEBohani (2)XO  02:58+3:2502:59+3:291m--2-212.778361mWCRNarsinghpur, Madhya Pradesh
24|==|GARGadarwara (2)XO  03:09+3:3103:10+3:331m22-199.856352mWCRNarsinghpur, Madhya Pradesh
25|==|SCKRSalichauka Road (2)X  03:25+3:3103:26+3:321m--2-185.961355mWCRGadarwara, Madhya Pradesh
26|==|JHTJunehta (2)  03:36-03:37-1m--2-175.851353mWCRState Highway 22, Madhya Pradesh
27|==|BKHBankhedi (2)X  03:44+3:3003:46+3:372m--2-169.969351mWCRBankheri, Madhya Pradesh
28|==|PPIPipariya (3)X  04:03+3:0904:05+3:172m32-150.440338mWCRPiparia, Madhya Pradesh
29|==|SXFSobhapur (2)  04:18-04:19-1m--2-141.845338mWCRState Highway 22, Madhya Pradesh
30|==|SGPSohagpur (2)X  04:31+3:3704:33+3:412m--2-132.743340mWCRSohagpur, Madhya Pradesh
31|==|GMDGuramkhedi (2)  04:47+3:3704:48+3:371m--2-122.749337mWCRGuramkhedi, Madhya Pradesh
32|=-|BGTABagratawa (2)O  05:04+3:3105:05+3:351m--2-109.629338mWCRBagra Tawa, Madhya Pradesh
33|-=|SQLSontalai (2)X  05:19+3:3405:20+3:471m--2-102.827329mWCRItarsi, Madhya Pradesh
34|==|GROGurra (2)X  05:40+3:3605:41+3:411m--2-93.816327mWCRItarsi, Madhya Pradesh
35|==|ETItarsi Junction (7)  06:20+1:3606:45+1:3725m--2-83.257329mWCRItarsi 461111, Madhya Pradesh
36/==/DRADularia (2)  06:58+3:5606:59+4:011m--2-71.042318mWCRItarsi, Madhya Pradesh
37/==/KTZKhutwansa (2)X  07:07-07:08-1m--2-65.355325mWCRSH 15, Madhya Pradesh
38/==/DKIDharamkundi (2)O  07:17 07:16+3:5707:18+3:571 2m--2-58.031314mWCRSH 15, Madhya Pradesh
39/==/BPFBanapura (2)  07:34+3:2607:35+3:331m--2-49.849314mWCRBanapura, Madhya Pradesh
40/==/BIFBhaironpur (2)O  07:44+3:3107:45+3:321m--2-42.449322mWCRSH 15, Madhya Pradesh
41/==/PGLPagdhal (2)X  07:54+3:5107:55+3:591m--2-35.141317mWCRPagdhal, Madhya Pradesh
42/==/CGOChhidgaon (2)X  08:01-08:02-1m--2-31.026309mWCRHarda, Madhya Pradesh
43/==/TBNTimarni (2)  08:24+3:5908:25+3:591m--2-21.547308mWCRTimarni, Madhya Pradesh
44/==/CRKCharkhera (2)XO  08:34+3:4108:35+3:471m--2-14.423298mWCRBarkalan, Madhya Pradesh
45/==/HDHarda (3)X  08:53+3:5308:55+3:592m--2-7.474289mWCRHarda, Madhya Pradesh
46/==/PALPalasner (2)»  09:02 09:01+3:3509:03+3:351 2m--20.044296mWCRHarda, Madhya Pradesh
47/==/MUOMasangaon (2)XO  09:12 09:11+3:3309:13+3:331 2m--25.912303mWCRSH 15, Madhya Pradesh
48/==/BRIBhiringi (2)  09:39 09:38+3:1609:40+3:231 2m--211.1133294mWCRSH 15, Madhya Pradesh
49/==/KROKurawan (2)X  09:44 09:43-09:45-1 2m--217.829297mWCRSH 15, Madhya Pradesh
50/==/KKNKhirkiya (2)O  09:58+3:4110:00+3:412m1224.141281mWCRSH 15, Madhya Pradesh
51/==/DRHIDagarhkeri (2)XO  10:17 10:16+3:1410:18+3:201 2m--235.121274mWCRState Highway 15, Madhya Pradesh
52/==/BRUDBarud (2)X  10:47 10:46+3:0110:48+3:101 2m--244.676273mWCRKhandwa, Madhya Pradesh
53/==/CAERChhanera (2)XO  10:56+3:1210:58+3:152m--254.823283mWCRChhanera, Madhya Pradesh
54/==/CKKDCharkheda Khurd (2)  11:17 11:16+3:0511:18+3:051 2m--261.624274mWCRKhandwa, Madhya Pradesh
55/==/SGBJSurgaon Banjari (2)  11:47 11:46+2:4711:48+3:001 2m--272.771298mWCRKhandwa, Madhya Pradesh
56/==/TLVTalvadiya (2)  11:58+3:0212:00+3:102m--284.563308mWCRKhandwa, Madhya Pradesh
57/==/MTAMathela (2)XO  12:09 12:08+3:1112:10+3:111 2m--292.96322mWCRKhandwa, Madhya Pradesh
58/==/KNWKhandwa Junction (5)  13:20+2:3813:30+2:3810m--2100.244310mCRKhandwa, Madhya Pradesh
59/==/BRGJBargaon Gujar (2)  13:37+2:0613:38+2:061m--2105.460316mCRKhandwa, Madhya Pradesh
60/==/BMABagmar (2)X  13:44+2:0913:45+2:101m--2111.466335mCRState Highway 27, Madhya Pradesh
61/==/KDKKohdad (2)X  13:49+2:1313:50+2:131m--2115.857344mCRState Highway 15, Madhya Pradesh
62/==/DGNDongargaon (2)  13:58+2:1313:59+2:281m12123.358373mCRBorgaon, Madhya Pradesh
63/==/SXASagphata (2)  14:07+2:2914:08+2:291m--2131.151350mCRKhandwa, Madhya Pradesh
64/==/MWAMandwa (2)X  14:15+2:2914:16+2:291m--2137.044317mCRState Highway 27, Madhya Pradesh
65/==/NPNRNepanagar (2)  14:24+3:2514:26+3:252m--2142.953289mCRState Highway 27, Madhya Pradesh
66/==/CDIChandni (2)X  14:34+2:2914:35+2:301m--2149.977276mCRNepanagar Rd, Madhya Pradesh
67/==/AGQAsirgarh Road (2)  14:43+2:3014:44+2:391m--2160.267259mCRState Highway 27, Madhya Pradesh
68/==/BAUBurhanpur (2)X  14:52+3:2314:55+3:243m12169.162269mCRBurhanpur, Madhya Pradesh
69/==/WGAWaghodaX  15:05+2:4915:06+2:541m--2179.460259mCRChorwad, Maharashtra
70/==/RVRaver (2)X  15:16+2:2915:18+2:282m--2189.368242mCRJalgaon, Maharashtra
71/==/NBNimbhora (2)X  15:27+2:0315:28+2:031m--2199.458229mCRJalgaon, Maharashtra
72/==/SAVSavda (2)  15:37+1:1415:38+1:141m--2208.258220mCRSavda, Maharashtra
73/==/DSKDuskheda (2)X  15:47+1:5115:48+2:021m--2216.96213mCRDuskheda Station, Maharashtra
74/==/BSLBhusaval Junction (8)•  17:00+2:43-62223.6-208mCRBhusaval 425201, Maharashtra
Scroll to Top
Scroll to Bottom